DW7322 Weather Reports


Display with metric or nautical units.
time (UTC)temp
F
wind
direction
speed
MPH
gust
MPH
rain 1hr
in
rain 24hr
in
rain mn
in
humidity
%
barometer
mb
20260902223116 89 300 0.0 0.0 0.00 0.00 0.00 74 1011.7
20260902221523 90 305 0.0 0.0 0.00 0.00 0.00 71 1011.7
20260902220009 91 306 0.0 0.0 0.00 0.00 0.00 69 1011.9
20260902214536 92 306 0.0 0.0 0.00 0.00 0.00 71 1011.9
20260902213056 91 305 0.0 0.0 0.00 0.00 0.00 69 1011.9
20260902213002 91 306 0.0 0.0 0.00 0.00 0.00 70 1011.9
20260902211520 91 273 0.0 0.0 0.00 0.00 0.00 66 1012.0
20260902210040 92 276 0.0 0.0 0.00 0.00 0.00 70 1012.1
20260902204541 92 283 0.0 0.0 0.00 0.00 0.00 63 1012.1
20260902203059 93 271 0.0 0.0 0.00 0.00 0.00 64 1012.1
20260902201517 94 267 0.0 0.0 0.00 0.00 0.00 65 1012.1
20260902200042 94 236 0.0 0.0 0.00 0.00 0.00 65 1012.3
20260902194537 94 191 0.0 0.0 0.00 0.00 0.00 61 1012.3
20260902193052 95 281 0.0 0.0 0.00 0.00 0.00 62 1012.5
20260902191512 94 288 0.0 0.0 0.00 0.00 0.00 65 1012.6
20260902190130 94 39 0.0 0.0 0.00 0.00 0.00 67 1012.7
20260902184532 93 262 0.0 0.0 0.00 0.00 0.00 64 1012.8
20260902183057 93 323 0.0 0.0 0.00 0.00 0.00 66 1012.8
20260902181506 93 230 0.0 0.0 0.00 0.00 0.00 68 1012.9
20260902180007 93 235 0.0 0.0 0.00 0.00 0.00 64 1013.0
20260902174525 93 241 0.0 0.0 0.00 0.00 0.00 68 1013.0
20260902173055 93 241 0.0 0.0 0.00 0.00 0.00 65 1013.0
20260902171557 92 309 0.0 0.0 0.00 0.00 0.00 66 1013.2
20260902171504 92 309 0.0 0.0 0.00 0.00 0.00 68 1013.2
20260902170113 91 207 0.0 0.0 0.00 0.00 0.00 67 1013.2
20260902164503 91 241 0.0 0.0 0.00 0.00 0.00 69 1013.3
20260902163026 90 232 0.0 0.0 0.00 0.00 0.00 69 1013.4
20260902161538 90 232 0.0 0.0 0.00 0.00 0.00 72 1013.5
20260902160052 88 233 0.0 0.0 0.00 0.00 0.00 74 1013.5
20260902154540 87 216 0.0 0.0 0.00 0.00 0.00 75 1013.6
20260902153058 85 139 0.0 0.0 0.00 0.00 0.00 78 1013.7
20260902151504 83 253 0.0 0.0 0.00 0.00 0.00 82 1013.9
20260902150002 82 139 0.0 0.0 0.00 0.00 0.00 83 1013.9
20260902144526 81 264 0.0 0.0 0.00 0.00 0.00 84 1014.0
20260902143038 80 280 0.0 0.0 0.00 0.00 0.00 84 1014.1
20260902141601 79 280 0.0 0.0 0.00 0.00 0.00 89 1013.9
20260902140113 78 247 0.0 0.0 0.00 0.00 0.00 91 1014.0
20260902134605 77 246 0.0 0.0 0.00 0.00 0.00 91 1014.1
20260902133012 76 246 0.0 0.0 0.00 0.00 0.00 93 1013.9
20260902131528 74 246 0.0 0.0 0.00 0.00 0.00 94 1013.9
20260902130026 72 246 0.0 0.0 0.00 0.00 0.00 94 1014.1
20260902124537 71 247 0.0 0.0 0.00 0.00 0.00 95 1014.1
20260902123100 71 247 0.0 0.0 0.00 0.00 0.00 95 1014.0
20260902121520 71 247 0.0 0.0 0.00 0.00 0.00 95 1014.0
20260902120049 71 246 0.0 0.0 0.00 0.00 0.00 95 1013.9
20260902114542 70 246 0.0 0.0 0.00 0.00 0.00 95 1013.6
20260902113053 70 247 0.0 0.0 0.00 0.00 0.00 95 1013.7
20260902111512 70 247 0.0 0.0 0.00 0.00 0.00 95 1013.7
20260902110129 71 246 0.0 0.0 0.00 0.00 0.00 95 1013.8
20260902104546 71 248 0.0 0.0 0.00 0.00 0.00 95 1014.0
20260902103101 71 247 0.0 0.0 0.00 0.00 0.00 95 1013.9
20260902101513 71 247 0.0 0.0 0.00 0.00 0.00 95 1014.0
20260902100042 71 246 0.0 0.0 0.00 0.00 0.00 95 1013.9
20260902094530 71 247 0.0 0.0 0.00 0.00 0.00 95 1013.9
20260902093047 71 247 0.0 0.0 0.00 0.00 0.00 95 1013.9
20260902091513 71 247 0.0 0.0 0.00 0.00 0.00 95 1013.7
20260902090018 71 247 0.0 0.0 0.00 0.00 0.00 95 1013.6
20260902084536 71 247 0.0 0.0 0.00 0.00 0.00 95 1013.4
20260902083059 72 246 0.0 0.0 0.00 0.00 0.00 95 1013.5
20260902081516 72 246 0.0 0.0 0.00 0.00 0.00 95 1013.5
20260902080040 72 247 0.0 0.0 0.00 0.00 0.00 95 1013.4
20260902074534 72 246 0.0 0.0 0.00 0.00 0.00 95 1013.5
20260902073004 72 246 0.0 0.0 0.00 0.00 0.00 95 1013.4
20260902071527 73 246 0.0 0.0 0.00 0.00 0.00 95 1013.3
20260902070048 73 247 0.0 0.0 0.00 0.00 0.00 95 1013.4
20260902064549 72 246 0.0 0.0 0.00 0.00 0.00 95 1013.4
20260902063032 73 247 0.0 0.0 0.00 0.00 0.00 95 1013.7
20260902061556 73 247 0.0 0.0 0.00 0.00 0.00 95 1013.5
20260902060106 73 247 0.0 0.0 0.00 0.00 0.00 95 1013.6
20260902054555 73 246 0.0 0.0 0.00 0.00 0.00 95 1013.4
20260902053017 73 246 0.0 0.0 0.00 0.00 0.00 95 1013.4
20260902051545 74 246 0.0 0.0 0.00 0.00 0.00 95 1013.6
20260902050101 74 246 0.0 0.0 0.00 0.00 0.00 94 1013.5
20260902044605 74 246 0.0 0.0 0.00 0.00 0.00 94 1013.6
20260902043015 74 247 0.0 0.0 0.00 0.00 0.00 94 1013.5
20260902041542 75 246 0.0 0.0 0.00 0.00 0.00 93 1013.5
20260902040104 75 246 0.0 0.0 0.00 0.00 0.00 93 1013.6
20260902034601 75 247 0.0 0.0 0.00 0.00 0.00 93 1013.6
20260902033020 76 247 0.0 0.0 0.00 0.00 0.00 93 1013.7
20260902031553 76 247 0.0 0.0 0.00 0.00 0.00 93 1013.7
20260902024558 77 247 0.0 0.0 0.00 0.00 0.00 92 1013.7
20260902023028 77 247 0.0 0.0 0.00 0.00 0.00 92 1013.6
20260902021538 77 247 0.0 0.0 0.00 0.00 0.00 92 1013.6
20260902014544 78 246 0.0 0.0 0.00 0.00 0.00 92 1013.3
20260902013004 79 247 0.0 0.0 0.00 0.00 0.00 91 1013.2
20260902011531 79 246 0.0 0.0 0.00 0.00 0.00 90 1013.0
20260902010100 80 246 0.0 0.0 0.00 0.00 0.00 89 1012.7
20260902004548 81 246 0.0 0.0 0.00 0.00 0.00 87 1012.5
20260902003016 83 246 0.0 0.0 0.00 0.00 0.00 85 1012.5
20260902001538 84 247 0.0 0.0 0.00 0.00 0.00 83 1012.5
20260902000058 85 247 0.0 0.0 0.00 0.00 0.00 81 1012.5
20260901234602 87 247 0.0 0.0 0.00 0.00 0.00 81 1012.5
20260901233013 87 247 0.0 0.0 0.00 0.00 0.00 78 1012.6
20260901231545 88 247 0.0 0.0 0.00 0.00 0.00 77 1012.7
20260901230109 89 247 0.0 0.0 0.00 0.00 0.00 77 1012.8
20260901224557 90 247 0.0 0.0 0.00 0.00 0.00 75 1012.8